[[{"header":{"parameterUnit":"m.s-1","parameterCategory":1,"la1":30.2991,"la2":30.254,"lo1":-89.0895,"lo2":-89.0444,"dy":0.0017,"dx":0.0017,"nx":28,"ny":28,"refTime":"2025-06-08T09:00:00:Z","depth":0,"parameterNumber":2,"parameterNumberName":"U-component_of_WINDS"},"data":[0,0,0,0,0,0,0,0,0,0,0,0,0,0,0,0,0,0,0,0,0,0,0,0,0,0,0,0,0,0,0,0,0,0,0,0,0,0,0,0,0,0,0,0,0,0,0,0,0,0,0,0,0,0,0,0,0,0,1.7755,1.7757,0,1.7894,1.7895,1.7897,1.7929,1.7928,1.7927,1.7926,1.8074,1.8079,1.8084,0,0,0,0,0,0,0,0,0,0,0,0,0,1.7529,1.7533,1.7755,1.7757,1.7758,1.7893,1.7895,1.7897,1.7929,1.7928,1.7926,1.7925,1.8073,1.8079,1.8084,0,0,0,0,0,0,0,0,0,0,0,0,0,1.7643,1.7534,1.7755,1.779,1.7795,1.7893,1.7895,1.7898,1.7929,1.7928,1.7926,1.7925,1.8071,1.8078,1.8085,1.816,0,0,1.8108,1.8111,0,0,0,0,0,0,0,0,1.7637,1.7652,1.7783,1.7788,1.7793,1.7892,1.787,1.7986,1.7929,1.7878,1.7926,1.7924,1.8015,1.8027,1.8057,1.8167,1.8173,1.8108,1.8113,1.8116,1.8118,0,0,0,0,0,0,0,1.7629,1.7646,1.781,1.7785,1.7791,1.7803,1.7818,1.7892,1.7954,1.7883,1.7885,1.7901,1.8018,1.8049,1.806,1.8175,1.8108,1.8114,1.8119,1.8122,1.8361,1.8363,0,0,0,0,0,0,1.7613,1.7639,1.7806,1.7814,1.771,1.7808,1.7825,1.7862,1.7953,1.7965,1.7902,1.7902,1.8038,1.8052,1.8066,1.8163,1.8116,1.8123,1.8127,1.8359,1.8361,1.8364,0,0,0,0,0,0,1.7608,1.7628,1.78,1.7727,1.775,1.7814,1.7856,1.7866,1.7897,1.7967,1.7979,1.7922,1.8037,1.8055,1.8137,1.8169,1.8126,1.8132,1.8357,1.836,1.8363,1.8356,0,0,0,0,0,0,1.7602,1.7626,1.7652,1.7728,1.7754,1.7866,1.7857,1.7869,1.7909,1.791,1.799,1.8001,1.8037,1.8126,1.8144,1.8178,1.8138,1.8354,1.8358,1.8362,1.8354,1.8359,1.8363,0,0,0,0,0,1.7594,1.7644,1.7653,1.7673,1.7787,1.7867,1.7883,1.7921,1.7911,1.794,1.7986,1.7999,1.8162,1.8134,1.8155,1.8191,1.8352,1.8357,1.8361,1.8352,1.8358,1.8362,0,0,0,0,0,0,1.7571,1.7655,1.7665,1.7741,1.7797,1.7872,1.7909,1.7925,1.7986,1.7985,1.8032,1.805,1.813,1.8169,1.8136,1.8272,1.8258,1.8266,1.8243,1.8249,1.8254,1.8243,1.8144,0,0,0,0,0,1.7575,1.763,1.7702,1.7762,1.779,1.7845,1.7881,1.7906,1.7967,1.7991,1.8043,1.8103,1.8169,1.8211,1.8275,1.836,1.8381,1.8396,1.84,1.8403,1.8411,1.8465,1.8474,1.8378,1.8378,1.8378,0,0,1.7584,1.7637,1.7669,1.776,1.7805,1.7866,1.7864,1.7927,1.7973,1.8001,1.8082,1.8123,1.8194,1.8279,1.8319,1.8314,1.8442,1.8409,1.8411,1.8417,1.8471,1.848,1.8488,1.8381,1.8381,1.838,0,0,1.7631,1.7674,1.7732,1.7779,1.7849,1.7886,1.79,1.7975,1.8003,1.8085,1.8109,1.8167,1.8277,1.8328,1.8369,1.8442,1.8459,1.8462,1.8485,1.8537,1.8545,1.8552,1.8583,1.8592,1.8469,1.8469,1.8469,0,1.7634,1.7722,1.7761,1.7823,1.7865,1.7893,1.7955,1.7999,1.8087,1.8118,1.811,1.8253,1.8303,1.8403,1.8421,1.8452,1.8474,1.8453,1.854,1.8548,1.8555,1.8585,1.8596,1.8469,1.8469,1.8469,1.8469,0,1.7725,1.7787,1.7826,1.7909,1.7956,1.8017,1.807,1.8113,1.8135,1.8175,1.8262,1.8323,1.8402,1.8428,1.845,1.8533,1.8529,1.853,1.8517,1.8564,1.8593,1.8604,1.847,1.847,1.847,1.847,0,0,1.7759,1.7867,1.7881,1.7922,1.8003,1.8054,1.812,1.8196,1.8235,1.8296,1.8356,1.8451,1.8455,1.8501,1.853,1.8576,1.8637,1.8573,1.8575,1.8586,1.8739,1.8739,1.8751,1.8647,1.865,1.8651,1.8734,0,1.7819,1.7934,1.7974,1.8072,1.8133,1.8163,1.8222,1.8281,1.8321,1.8382,1.8427,1.8496,1.8493,1.8522,1.8568,1.8619,1.8668,1.8613,1.8708,1.8711,1.8691,1.8765,1.8764,1.8839,1.8745,1.8747,1.8748,0,1.7903,1.7966,1.8069,1.8149,1.8176,1.8227,1.8304,1.836,1.843,1.8457,1.8511,1.8538,1.8614,1.8596,1.8704,1.8666,1.8708,1.8739,1.8743,1.8755,1.8733,1.8783,1.8863,1.8875,1.8766,1.8764,1.8763,0,1.7922,1.8033,1.8111,1.8144,1.8238,1.8274,1.8315,1.8384,1.8429,1.8498,1.8529,1.8605,1.8648,1.8709,1.8758,1.8739,1.8864,1.8849,1.8892,1.8891,1.8918,1.8916,1.9009,1.894,1.894,1.894,1.894,0,1.7986,1.8049,1.8121,1.8169,1.8243,1.8291,1.8364,1.8407,1.8469,1.853,1.8561,1.8618,1.8679,1.8745,1.8785,1.8872,1.889,1.8917,1.8927,1.8915,1.8912,1.8945,1.8942,1.8943,1.8942,1.8942,1.8941,0,1.802,1.807,1.8157,1.824,1.8263,1.8314,1.8387,1.8437,1.848,1.8557,1.8578,1.8647,1.8728,1.8783,1.8886,1.8913,1.9009,1.9016,1.8984,1.899,1.9032,1.9029,1.9151,1.9172,1.9086,1.9087,1.9087,0,1.8058,1.8107,1.8196,1.8238,1.828,1.8347,1.8394,1.8445,1.8493,1.8581,1.8622,1.8705,1.8773,1.8902,1.8963,1.9044,1.9056,1.9094,1.9069,1.9058,1.9062,1.9059,1.9067,1.9098,1.9099,1.91,1.91,0,1.8121,1.8145,1.821,1.8287,1.8342,1.8405,1.8468,1.8502,1.8565,1.8619,1.8701,1.8754,1.8862,1.8945,1.9033,1.908,1.9103,1.9108,1.9123,1.9112,1.9093,1.9109,1.8998,1.9105,1.9104,1.9104,1.9104,1.9103,1.8161,1.8209,1.828,1.8354,1.8407,1.8467,1.852,1.8571,1.864,1.873,1.8757,1.8844,1.892,1.904,1.9089,1.9161,1.9158,1.9179,1.9185,1.919,1.9192,1.908,1.9177,1.9177,1.9177,1.9177,1.9177,0,1.823,1.8278,1.8345,1.8434,1.8494,1.8508,1.8581,1.8631,1.8706,1.8774,1.8842,1.894,1.9023,1.9092,1.9179,1.9224,1.9237,1.9246,1.9244,1.9256,1.9187,1.9167,1.9234,1.9234,1.9234,1.9234,1.9234,1.9234,1.8272,1.8356,1.8389,1.8502,1.8551,1.8635,1.8676,1.8734,1.8788,1.8896,1.8965,1.9009,1.908,1.9173,1.9252,1.9271,1.9303,1.931,1.9332,1.9266,1.926,1.9254,1.9235,1.9316,1.9316,1.9395,1.9396,1.9396]},{"header":{"parameterUnit":"m.s-1","parameterCategory":1,"la1":30.2991,"la2":30.254,"lo1":-89.0895,"lo2":-89.0444,"dy":0.0017,"dx":0.0017,"nx":28,"ny":28,"refTime":"2025-06-08T09:00:00:Z","depth":0,"parameterNumber":3,"parameterNumberName":"V-component_of_WINDS"},"data":[0,0,0,0,0,0,0,0,0,0,0,0,0,0,0,0,0,0,0,0,0,0,0,0,0,0,0,0,0,0,0,0,0,0,0,0,0,0,0,0,0,0,0,0,0,0,0,0,0,0,0,0,0,0,0,0,0,0,5.0498,5.05,0,5.0706,5.0708,5.071,5.0759,5.0758,5.0756,5.0755,5.0961,5.0968,5.0974,0,0,0,0,0,0,0,0,0,0,0,0,0,5.014,5.0146,5.0498,5.0501,5.0503,5.0705,5.0708,5.0711,5.0759,5.0758,5.0756,5.0754,5.0959,5.0967,5.0975,0,0,0,0,0,0,0,0,0,0,0,0,0,5.0316,5.0148,5.0498,5.0552,5.0559,5.0705,5.0708,5.0712,5.076,5.0758,5.0756,5.0754,5.0956,5.0966,5.0976,5.1081,0,0,5.1007,5.1012,0,0,0,0,0,0,0,0,5.0306,5.0329,5.0541,5.0548,5.0557,5.0705,5.0657,5.0835,5.076,5.0683,5.0755,5.0753,5.0877,5.0893,5.0937,5.109,5.1099,5.1008,5.1014,5.1019,5.1021,0,0,0,0,0,0,0,5.0294,5.032,5.058,5.0544,5.0554,5.0565,5.0587,5.0691,5.0789,5.069,5.0694,5.0718,5.0881,5.0927,5.0942,5.1102,5.1008,5.1017,5.1023,5.1027,5.1355,5.1357,0,0,0,0,0,0,5.0273,5.031,5.0573,5.0586,5.0424,5.0573,5.0598,5.0659,5.0788,5.0806,5.072,5.072,5.091,5.093,5.0949,5.1083,5.1018,5.1028,5.1034,5.1352,5.1355,5.1358,0,0,0,0,0,0,5.0265,5.0296,5.0565,5.0449,5.0485,5.0581,5.0649,5.0664,5.0711,5.0811,5.0828,5.0749,5.091,5.0935,5.1049,5.1091,5.1033,5.1042,5.1349,5.1353,5.1357,5.135,0,0,0,0,0,0,5.0254,5.0293,5.0334,5.045,5.0491,5.0662,5.0652,5.067,5.0729,5.0731,5.0843,5.086,5.091,5.1033,5.1059,5.1104,5.105,5.1346,5.1351,5.1356,5.1347,5.1353,5.1358,0,0,0,0,0,5.0241,5.0322,5.0336,5.0367,5.0545,5.0665,5.0688,5.0746,5.0732,5.0774,5.0839,5.0856,5.1082,5.1045,5.1074,5.1122,5.1344,5.135,5.1355,5.1344,5.1352,5.1358,0,0,0,0,0,0,5.0205,5.0338,5.0355,5.0476,5.0559,5.0673,5.0728,5.0751,5.0839,5.0836,5.0903,5.0928,5.1038,5.1091,5.1047,5.1232,5.1212,5.1224,5.1194,5.1202,5.1207,5.1193,5.1058,0,0,0,0,0,5.0212,5.03,5.041,5.0505,5.0547,5.063,5.0684,5.0722,5.081,5.0845,5.0918,5.1001,5.1091,5.1149,5.1237,5.1354,5.138,5.1402,5.1407,5.1412,5.1422,5.1491,5.1502,5.1378,5.1377,5.1377,0,0,5.0225,5.0308,5.0359,5.05,5.057,5.0659,5.0659,5.0752,5.0819,5.0858,5.0972,5.1028,5.1125,5.1242,5.1297,5.129,5.1462,5.1419,5.1422,5.143,5.1498,5.151,5.152,5.1382,5.1381,5.138,0,0,5.0296,5.0367,5.0457,5.0527,5.0632,5.0688,5.0709,5.082,5.086,5.0976,5.1008,5.1087,5.124,5.1309,5.1364,5.1464,5.1484,5.149,5.1521,5.1587,5.1597,5.1606,5.1645,5.1657,5.15,5.15,5.15,0,5.0299,5.0437,5.0499,5.0593,5.0654,5.0697,5.0788,5.0852,5.0979,5.1021,5.1011,5.1207,5.1274,5.141,5.1435,5.1477,5.1504,5.1479,5.1591,5.1601,5.161,5.1648,5.1662,5.15,5.15,5.15,5.15,0,5.0436,5.0531,5.059,5.0717,5.0785,5.0876,5.0952,5.1013,5.1045,5.1101,5.1219,5.1302,5.141,5.1444,5.1474,5.1584,5.1577,5.1578,5.156,5.1622,5.1658,5.1672,5.15,5.15,5.15,5.15,0,0,5.049,5.0652,5.0673,5.0733,5.0853,5.0927,5.102,5.1128,5.1181,5.1267,5.1348,5.1478,5.1481,5.1544,5.1582,5.164,5.1718,5.1635,5.1638,5.165,5.1847,5.1847,5.1863,5.1731,5.1734,5.1736,5.184,0,5.0578,5.075,5.081,5.0951,5.1041,5.1083,5.1165,5.1247,5.1302,5.1385,5.1445,5.1537,5.1533,5.1572,5.163,5.1696,5.1758,5.1689,5.1807,5.1811,5.1785,5.1881,5.1881,5.1975,5.1854,5.1856,5.1858,0,5.0704,5.0797,5.0948,5.1061,5.1101,5.1173,5.1279,5.1357,5.1452,5.1488,5.1559,5.1594,5.1694,5.1668,5.1806,5.1758,5.1809,5.1849,5.1854,5.1869,5.184,5.1901,5.2006,5.2021,5.188,5.1878,5.1877,0,5.0732,5.0894,5.1007,5.1056,5.1189,5.124,5.1297,5.139,5.1452,5.1543,5.1584,5.1683,5.1739,5.1815,5.1876,5.1852,5.201,5.1989,5.2043,5.2042,5.2076,5.2074,5.2194,5.2105,5.2105,5.2104,5.2104,0,5.0826,5.0917,5.1022,5.1091,5.1196,5.1263,5.1363,5.1423,5.1506,5.1587,5.1627,5.1703,5.1778,5.1863,5.1911,5.202,5.2043,5.2075,5.2088,5.2074,5.207,5.211,5.2106,5.2108,5.2107,5.2107,5.2106,0,5.0875,5.0949,5.1075,5.1192,5.1224,5.1296,5.1396,5.1464,5.1522,5.1624,5.1652,5.1741,5.1844,5.1912,5.2041,5.2074,5.2193,5.2202,5.2163,5.2169,5.2221,5.2216,5.2373,5.2398,5.2289,5.229,5.2291,0,5.0931,5.1004,5.113,5.1189,5.1248,5.1341,5.1406,5.1475,5.154,5.1655,5.171,5.1816,5.1904,5.2065,5.2141,5.2241,5.2255,5.2303,5.227,5.2255,5.2259,5.2256,5.2264,5.2308,5.2309,5.231,5.231,0,5.1024,5.1058,5.1151,5.1258,5.1335,5.1421,5.1508,5.1553,5.1637,5.1708,5.1815,5.1884,5.2019,5.2123,5.2231,5.2288,5.2314,5.232,5.2339,5.2326,5.2302,5.2319,5.218,5.2317,5.2316,5.2316,5.2315,5.2315,5.1081,5.1149,5.125,5.1353,5.1426,5.1507,5.1579,5.1646,5.1738,5.1855,5.1889,5.2001,5.2095,5.2243,5.2302,5.239,5.2385,5.2411,5.2418,5.2424,5.2427,5.2286,5.2409,5.2409,5.2409,5.2409,5.2409,0,5.118,5.1247,5.1341,5.1464,5.1545,5.1564,5.1661,5.1727,5.1826,5.1913,5.2001,5.2125,5.2227,5.2312,5.2417,5.2471,5.2486,5.2497,5.2495,5.2509,5.2423,5.2398,5.2484,5.2484,5.2484,5.2484,5.2484,5.2484,5.124,5.1357,5.1403,5.1557,5.1623,5.1736,5.179,5.1865,5.1936,5.2073,5.216,5.2215,5.2302,5.2414,5.2509,5.2532,5.257,5.2579,5.2604,5.2523,5.2514,5.2506,5.2484,5.2586,5.2586,5.2683,5.2684,5.2684]}]]